Theta_e
345 347 349 347 346 345 345 346 347 348 348 348 349 348 348 349 349 349 349 348 348 346 344 345 344 343 341 339 337 339 341 338
348 347 347 350 351 344 344 345 346 346 347 347 346 346 347 348 348 348 347 347 346 345 344 344 344 342 340 337 336 337 340 343
350 348 347 348 348 348 345 346 346 345 347 346 343 344 347 348 345 345 346 344 343 344 343 342 342 340 339 337 336 340 343 342
350 350 348 348 345 349 349 348 349 348 346 348 344 343 344 343 342 344 343 342 342 341 341 340 338 342 339 336 337 341 343 342
348 350 351 349 346 346 344 344 345 347 348 348 344 343 343 342 344 345 343 341 341 340 341 341 342 340 338 339 338 341 342 342
346 348 350 350 346 344 344 342 343 342 345 349 348 342 343 342 341 341 340 338 338 340 339 341 341 341 341 340 341 341 341 341
344 347 349 349 350 344 344 343 342 342 344 347 346 343 345 342 341 340 338 337 336 337 338 338 339 339 340 341 341 342 343 342
343 345 348 349 349 352 345 345 345 343 341 344 348 345 346 341 341 339 338 338 337 337 337 336 337 339 340 341 340 340 340 344
341 345 348 349 350 349 347 345 345 342 341 349 347 346 349 347 341 340 339 341 345 342 343 339 337 338 339 340 339 341 338 340
341 340 345 348 349 348 347 345 345 344 343 343 347 345 349 348 342 340 340 340 338 339 338 336 336 337 338 337 337 339 341 341
337 341 342 344 348 348 348 350 346 344 344 343 347 345 344 347 342 342 345 339 340 339 339 339 335 335 334 337 338 337 338 336
328 332 340 344 343 346 345 344 344 344 343 343 348 343 346 347 344 346 343 338 338 337 339 339 337 335 330 331 336 336 338 338
323 326 330 330 339 339 342 340 341 341 343 347 347 347 347 347 344 345 345 340 340 342 340 338 336 338 334 333 334 338 338 336
321 322 324 327 329 335 339 340 342 342 343 345 347 348 349 346 346 343 343 340 342 343 343 337 336 338 332 331 326 331 335 337
316 317 319 322 323 329 332 342 343 341 340 339 343 346 348 348 347 346 344 343 340 342 343 341 334 337 339 331 323 322 329 336
314 313 313 316 319 318 318 316 330 339 341 340 341 346 346 347 348 347 346 343 341 342 342 342 340 334 337 336 337 336 328 326
313 315 312 310 312 313 314 310 313 327 343 344 345 345 347 346 347 348 347 346 345 343 341 342 340 338 334 335 337 338 338 332
310 310 311 311 309 309 308 309 308 310 311 325 338 341 343 345 346 347 348 347 347 345 345 343 342 340 339 337 334 335 333 333
310 309 306 308 307 307 306 306 307 306 308 309 312 321 335 340 345 345 345 347 347 347 345 344 342 342 340 338 338 336 337 334
309 307 307 307 305 304 306 305 305 305 306 305 306 309 311 314 320 342 346 345 346 347 345 344 344 342 342 340 338 338 337 336
Wind_Speed
14 14 12 7 6 7 9 11 11 11 10 10 9 8 9 8 7 8 9 9 9 8 9 8 7 6 4 2 5 11 11 6
13 13 13 12 10 5 5 8 9 10 10 8 9 8 6 7 6 7 8 9 9 9 8 7 6 5 4 4 6 12 13 6
13 13 14 13 12 11 6 5 7 8 9 8 8 10 11 12 11 12 8 8 8 8 8 7 6 6 7 7 7 8 8 5
14 14 14 13 11 13 12 11 10 10 11 12 10 11 10 11 11 10 9 8 8 8 8 7 7 9 8 8 7 10 4 5
15 15 15 14 11 10 8 8 8 9 12 11 12 9 9 8 8 8 8 9 8 9 9 8 11 10 9 9 10 10 6 6
14 15 14 14 10 10 11 9 10 9 11 13 9 7 9 9 8 9 10 9 11 11 9 11 12 12 12 8 8 8 7 6
14 14 14 13 13 10 10 10 10 11 11 13 11 10 8 9 9 9 10 10 11 10 10 11 12 12 10 11 11 11 11 8
12 14 14 14 14 11 10 9 10 11 10 11 15 11 9 10 10 10 10 11 11 11 10 10 10 10 11 12 12 12 12 11
10 11 12 14 14 13 10 10 10 11 11 12 13 15 10 10 10 10 10 9 10 9 9 10 10 10 12 10 11 13 12 12
10 10 12 12 14 12 11 11 10 11 11 11 14 15 15 11 11 10 11 10 10 10 10 10 10 10 9 10 11 12 12 12
12 10 11 12 15 13 13 13 11 11 11 11 13 16 17 13 12 11 10 11 10 9 10 10 10 11 11 11 10 11 12 12
21 17 8 11 11 12 12 12 12 12 12 13 14 14 16 14 12 12 11 11 11 11 12 11 10 10 12 12 10 10 10 11
23 20 18 12 8 9 10 12 12 12 13 15 15 14 15 15 12 13 12 12 13 12 11 12 10 10 9 10 10 10 11 11
24 23 22 19 16 12 8 9 11 12 12 13 15 15 15 15 16 13 14 12 14 13 12 10 11 10 10 9 10 10 12 14
22 24 23 20 24 16 14 12 11 11 12 12 13 17 17 17 16 15 14 13 12 14 13 14 11 10 13 9 8 10 9 9
21 22 23 21 23 19 20 14 18 11 11 12 13 17 18 18 17 16 16 12 15 13 14 14 13 12 8 12 14 11 6 7
18 19 21 22 21 22 15 18 13 19 13 14 13 12 15 18 18 17 16 14 14 16 15 16 13 13 13 10 13 11 13 11
18 20 20 20 20 17 20 21 20 17 20 18 12 10 11 15 17 16 17 16 17 15 16 17 16 15 13 13 12 11 11 10
16 19 20 20 21 17 16 16 15 16 16 15 17 17 14 11 15 16 15 17 18 16 17 18 18 16 18 14 13 14 12 11
17 18 18 20 19 17 13 15 10 9 11 12 12 12 13 19 20 14 17 18 17 18 15 15 17 17 21 18 14 13 13 12
Wind_Direction
151 161 152 125 119 135 146 149 152 151 153 154 153 158 157 160 156 152 147 148 153 155 156 151 147 147 156 182 264 283 288 136
159 166 168 171 171 114 135 152 154 156 157 158 157 157 160 162 159 158 156 160 164 165 170 169 174 181 199 233 262 280 271 148
167 174 173 175 176 165 161 159 161 156 159 160 161 192 183 168 202 146 171 176 178 178 182 194 204 214 222 234 261 249 223 246
176 180 179 178 185 164 192 187 194 197 191 180 201 206 189 186 165 160 179 191 192 194 199 212 228 225 199 214 242 257 252 263
185 186 181 189 197 172 190 191 201 201 201 189 218 201 191 199 169 182 195 197 200 200 204 225 225 245 222 198 220 244 247 236
193 190 192 195 199 186 189 198 197 200 204 199 222 216 199 203 204 192 204 188 213 202 212 220 231 234 266 264 244 274 249 257
196 200 201 199 220 192 202 203 193 207 203 203 215 216 214 211 221 198 198 204 206 216 220 211 223 236 238 245 250 245 261 276
197 208 202 210 209 232 204 211 202 212 211 212 206 228 220 215 224 219 213 215 207 219 217 227 222 230 226 237 244 250 246 247
207 216 216 216 220 221 223 220 224 207 222 204 209 219 231 225 225 224 229 218 228 221 228 227 237 228 239 233 230 242 251 254
231 214 220 221 239 226 229 229 224 237 218 223 209 219 228 218 234 224 227 231 217 230 224 229 228 240 237 236 235 238 242 241
346 225 231 232 227 242 232 236 231 231 236 226 217 216 224 228 223 233 221 233 230 218 229 229 231 232 237 236 241 245 240 239
15 7 320 237 261 234 244 237 233 243 234 230 224 216 216 225 228 227 227 224 225 224 232 224 234 243 239 240 233 240 243 247
23 14 3 347 273 250 252 241 243 235 246 246 231 223 214 218 232 221 222 231 231 222 223 232 239 232 255 251 258 249 244 254
31 22 12 9 349 328 254 262 249 247 234 240 253 236 225 218 223 231 221 219 226 230 228 226 226 237 232 249 254 249 233 231
34 31 23 16 7 347 351 292 256 260 254 236 231 247 232 227 230 225 229 223 222 217 224 224 233 222 229 233 239 241 257 234
33 36 28 27 21 16 7 348 327 261 246 258 245 228 232 232 229 235 228 235 222 221 213 218 219 233 219 221 240 277 290 272
25 25 30 23 25 25 16 11 346 338 286 264 258 261 236 226 231 227 235 226 239 224 226 213 218 219 228 222 218 225 241 252
24 18 24 21 17 17 21 13 4 1 354 344 307 269 244 235 232 232 230 235 231 235 225 228 215 225 221 226 233 221 223 228
15 15 17 17 13 10 15 15 11 3 359 349 349 345 319 276 235 230 231 232 236 235 232 224 227 222 224 225 227 233 234 239
16 11 6 12 12 4 7 12 2 1 354 358 349 347 336 333 345 282 228 233 235 237 241 233 226 227 227 225 232 228 231 235